Location: Unspecified
(20.0000°S, 0.0000°E)
Time: 15:59:42
(UTC+00:00)

KKS-1 - Pass Details

Date: 03 September 2019
Orbit: 638 x 649 km, 98.3° (Epoch: 22 September)

Event Time Altitude Azimuth Distance (km) Brightness Sun altitude
Rises 19:34:05 0° 342° (NNW) 2,946 ? -24.7°
Reaches altitude 10° 19:36:49 10° 324° (NW) 2,043 ? -25.4°
Maximum altitude 19:39:59 19° 278° (W) 1,534 ? -26.1°
Drops below altitude 10° 19:43:10 10° 233° (SW) 2,056 ? -26.9°
Sets 19:45:57 0° 215° (SW) 2,971 ? -27.5°
